Broomfield, CO

1:49 AM MST on February 14, 2016 (GMT -0700)
Jeffco

Weather History for KBJC - March, 2013

Change the Weather History Date:

Monday, March 4, 2013

  Actual Average Record
Temperature  
Mean Temperature 34 °F -  
Max Temperature 46 °F 46 °F 73 °F (2009)
Min Temperature 21 °F 25 °F 6 °F (1985)
Degree Days  
Heating Degree Days 32    
Moisture  
Dew Point 21 °F    
Average Humidity 65    
Maximum Humidity 93    
Minimum Humidity 37    
Precipitation  
Precipitation 0.00 in - - ()
Sea Level Pressure  
Sea Level Pressure 29.91 in    
Wind  
Wind Speed 8 mph (NE)    
Max Wind Speed 18 mph    
Max Gust Speed 31 mph    
Visibility 8 miles    
Events Snow    
Averages and records for this station are not official NWS values.
T = Trace of Precipitation, MM = Missing Value Source: NWS Daily Summary

Daily Weather History Graph

Daily Weather History Graph

Search for Another Location

Airport or City:

Trip Planner

Search our weather history database for the weather conditions in past years. The results will help you decide how hot, cold, wet, or windy it might be!

Date:

Astronomy

Mar. 04, 2013 Rise Set
Actual Time 6:28 AM MST 5:56 PM MST
Civil Twilight 6:01 AM MST 6:23 PM MST
Nautical Twilight 5:30 AM MST 6:54 PM MST
Astronomical Twilight 4:59 AM MST 7:25 PM MST
Moon 12:40 AM MST (3/4) 10:40 AM MST (3/4)
Length of Visible Light 12h 21m
Length of Day
11h 27m
Waning Gibbous, 51% of the Moon is Illuminated
Mar 4
Waning Gibbous
Mar 4
Last Quarter
Mar 11
New
Mar 19
First Quarter
Mar 27
Full

Hourly Weather History & Observations

Time (MST) Temp. Windchill Dew Point Humidity Pressure Visibility Wind Dir Wind Speed Gust Speed Precip Events Conditions
12:14 AM 46.4 °F 43.5 °F 21.2 °F 37% 29.69 in 10.0 mi East 5.8 mph - N/A   Clear
12:36 AM 44.6 °F 40.7 °F 21.2 °F 39% 29.69 in 10.0 mi NE 6.9 mph - N/A   Clear
12:56 AM 46.4 °F 43.5 °F 21.2 °F 37% 29.68 in 10.0 mi NE 5.8 mph - N/A   Clear
1:16 AM 42.8 °F 38.0 °F 23.0 °F 46% 29.69 in 10.0 mi North 8.1 mph - N/A   Clear
1:36 AM 46.4 °F 42.9 °F 21.2 °F 37% 29.70 in 10.0 mi North 6.9 mph - N/A   Scattered Clouds
1:56 AM 46.4 °F 42.9 °F 21.2 °F 37% 29.70 in 10.0 mi NNW 6.9 mph 18.4 mph N/A   Scattered Clouds
2:16 AM 46.4 °F 42.4 °F 23.0 °F 40% 29.69 in 10.0 mi East 8.1 mph - N/A   Scattered Clouds
2:36 AM 44.6 °F 41.4 °F 23.0 °F 43% 29.69 in 10.0 mi NNE 5.8 mph - N/A   Mostly Cloudy
2:55 AM 46.4 °F 42.4 °F 21.2 °F 37% 29.69 in 10.0 mi East 8.1 mph - N/A   Mostly Cloudy
3:16 AM 46.4 °F 42.4 °F 21.2 °F 37% 29.70 in 10.0 mi NW 8.1 mph 19.6 mph N/A   Scattered Clouds
3:33 AM 46.4 °F 39.5 °F 23.0 °F 40% 29.68 in 10.0 mi West 17.3 mph 31.1 mph N/A   Scattered Clouds
3:56 AM 44.6 °F 38.1 °F 26.6 °F 49% 29.71 in 10.0 mi North 13.8 mph 18.4 mph N/A   Scattered Clouds
4:16 AM 41.0 °F 32.2 °F 26.6 °F 57% 29.72 in 10.0 mi NE 18.4 mph 23.0 mph N/A   Mostly Cloudy
4:35 AM 32.0 °F 21.6 °F 26.6 °F 80% 29.76 in 10.0 mi NE 15.0 mph - N/A   Scattered Clouds
5:45 AM 30.2 °F 21.3 °F 24.8 °F 80% 29.81 in 20.0 mi NNE 10.4 mph - N/A   Mostly Cloudy
6:46 AM 28.4 °F 24.6 °F 23.0 °F 80% 29.84 in 30.0 mi Variable 3.5 mph - N/A   Mostly Cloudy
8:54 AM 32.0 °F 24.8 °F 21.2 °F 64% 29.83 in 30.0 mi ENE 8.1 mph - N/A   Mostly Cloudy
9:47 AM 32.0 °F 27.5 °F 23.0 °F 69% 29.83 in 30.0 mi SE 4.6 mph - N/A   Overcast
10:50 AM 32.0 °F 24.2 °F 23.0 °F 69% 29.82 in 30.0 mi East 9.2 mph - N/A   Overcast
12:26 PM 30.2 °F 18.5 °F 21.2 °F 69% 29.87 in 7.0 mi NNE 17.3 mph - N/A Snow Light Snow
12:45 PM 28.4 °F 18.0 °F 23.0 °F 80% 29.89 in 0.5 mi North 12.7 mph - N/A Snow Snow
1:05 PM 28.4 °F 18.0 °F 24.8 °F 86% 29.91 in 0.2 mi North 12.7 mph - N/A Snow Snow
1:47 PM 28.4 °F 23.3 °F 24.8 °F 86% 29.91 in 0.2 mi North 4.6 mph - N/A Snow Heavy Snow
2:18 PM 26.6 °F 15.7 °F 24.8 °F 93% 29.93 in 0.5 mi North 12.7 mph - N/A Snow Light Snow
2:47 PM 26.6 °F 16.2 °F 23.0 °F 86% 29.96 in 1.0 mi North 11.5 mph - N/A Snow Light Snow
3:14 PM 26.6 °F 19.1 °F 23.0 °F 86% 29.97 in 1.5 mi North 6.9 mph - N/A Snow Light Snow
3:47 PM 26.6 °F 21.2 °F 21.2 °F 80% 29.99 in 15.0 mi NE 4.6 mph - N/A   Mostly Cloudy
4:47 PM 28.4 °F 23.3 °F 21.2 °F 74% 30.03 in 30.0 mi ESE 4.6 mph - N/A   Mostly Cloudy
5:54 PM 26.6 °F 20.0 °F 19.4 °F 74% 30.06 in 30.0 mi East 5.8 mph - N/A   Mostly Cloudy
6:46 PM 26.6 °F - 19.4 °F 74% 30.10 in 30.0 mi Calm Calm - N/A   Mostly Cloudy
7:17 PM 41.0 °F - 17.6 °F 39% 30.11 in 30.0 mi Calm Calm - N/A   Scattered Clouds
7:47 PM 24.8 °F 20.5 °F 19.4 °F 80% 30.12 in 30.0 mi South 3.5 mph - N/A   Partly Cloudy
8:49 PM 24.8 °F 17.9 °F 19.4 °F 80% 30.15 in 30.0 mi ESE 5.8 mph - N/A   Partly Cloudy
9:46 PM 23.0 °F 17.0 °F 17.6 °F 80% 30.18 in 30.0 mi SE 4.6 mph - N/A   Clear
10:15 PM 23.0 °F 18.4 °F 17.6 °F 80% 30.18 in 10.0 mi South 3.5 mph - N/A   Clear
10:36 PM 23.0 °F - 17.6 °F 80% 30.18 in 10.0 mi Calm Calm - N/A   Clear
10:56 PM 23.0 °F 18.4 °F 15.8 °F 74% 30.18 in 10.0 mi SSE 3.5 mph - N/A   Clear
11:15 PM 23.0 °F 18.4 °F 14.0 °F 68% 30.19 in 10.0 mi South 3.5 mph - N/A   Clear
11:36 PM 21.2 °F 12.6 °F 14.0 °F 74% 30.19 in 10.0 mi South 6.9 mph - N/A   Clear
11:56 PM 21.2 °F 12.6 °F 12.2 °F 68% 30.19 in 10.0 mi SSE 6.9 mph - N/A   Clear